Weather reports worldwide

Advertisment
Odiham, United Kingdom (3761): temperature & dewpoint: 06.12.2018 13:00:00 - 12.12.2018 13:00:00 (GMT)Odiham, United Kingdom (3761): temperature -20cm & temperature -100cm: 06.12.2018 13:00:00 - 12.12.2018 13:00:00 (GMT)Odiham, United Kingdom (3761): wind speed & gusts: 06.12.2018 13:00:00 - 12.12.2018 13:00:00 (GMT)Odiham, United Kingdom (3761): wind direction: 06.12.2018 13:00:00 - 12.12.2018 13:00:00 (GMT)Odiham, United Kingdom (3761): reduced air pressure: 06.12.2018 13:00:00 - 12.12.2018 13:00:00 (GMT)Odiham, United Kingdom (3761): visibility: 06.12.2018 13:00:00 - 12.12.2018 13:00:00 (GMT)Odiham, United Kingdom (3761): sunshine duration: 06.12.2018 13:00:00 - 12.12.2018 13:00:00 (GMT)Odiham, United Kingdom (3761): precipitation: 06.12.2018 13:00:00 - 12.12.2018 13:00:00 (GMT)
Date & Time tt [°C] td [°C] tt -20cm [°C] tt -100cm [°C] ff [km/h] ff [kn] fx [km/h] fx [kn] dd ppp [hPa] vv [km] sd [min] rr [mm]
12.12.2018 13:00:00 6,8 2,1 - - 18 10 - - SE 1021,6 10 0 0,0
12.12.2018 12:00:00 6,8 3,5 - - 15 8 - - SSE 1022,1 10 0 0,0
12.12.2018 11:00:00 6,4 4,7 - - 15 8 - - ESE 1022,1 10 0 0,0
12.12.2018 10:00:00 6,1 4,6 - - 16 9 - - ESE 1022,2 10 0 0,0
12.12.2018 09:00:00 4,6 3,7 8,7 10,0 11 6 - - ESE 1022,1 10 0 0,0
12.12.2018 08:00:00 4,7 3,7 - - 9 5 - - E 1021,9 10 0 0,0
12.12.2018 07:00:00 5,1 4,1 - - 8 4 - - E 1021,7 10 0 0,0
12.12.2018 06:00:00 5,4 4,4 - - 9 5 - - E 1021,2 10 0 0,0
12.12.2018 05:00:00 5,2 4,5 - - 9 5 - - E 1021,0 10 0 0,0
12.12.2018 04:00:00 5,1 4,5 - - 11 6 - - ESE 1021,6 10 0 0,0
12.12.2018 03:00:00 4,7 4,1 - - 11 6 - - ESE 1021,8 8 0 0,0
12.12.2018 02:00:00 4,4 3,8 - - 9 5 - - E 1021,8 7 0 0,0
12.12.2018 01:00:00 4,9 4,3 - - 9 5 - - E 1021,9 6 0 0,0
12.12.2018 00:00:00 4,5 4,0 - - 8 4 - - E 1022,3 5 - 0,0
11.12.2018 23:00:00 4,7 4,1 - - 8 4 - - E 1022,2 5 0 0,0
11.12.2018 22:00:00 4,7 4,2 - - 9 5 - - ESE 1022,0 6 0 0,0
11.12.2018 21:00:00 5,1 4,4 - - 11 6 - - ESE 1022,4 8 0 0,0
11.12.2018 20:00:00 5,4 4,8 - - 13 7 - - SE 1022,6 8 0 0,0
11.12.2018 19:00:00 5,3 4,5 - - 15 8 - - SE 1022,8 10 0 0,0
11.12.2018 18:00:00 4,9 4,2 - - 16 9 - - SE 1022,9 10 0 0,0
11.12.2018 17:00:00 4,9 4,0 - - 15 8 - - SE 1023,0 10 0 0,0
11.12.2018 16:00:00 5,8 4,4 - - 8 4 - - ESE 1023,1 10 0 0,0
11.12.2018 15:00:00 7,5 4,6 - - 9 5 - - SE 1023,2 10 24 -
11.12.2018 14:00:00 8,7 4,9 - - 11 6 - - SSE 1024,0 10 60 0,0
11.12.2018 13:00:00 8,6 4,8 - - 13 7 - - S 1024,2 10 60 0,0
11.12.2018 12:00:00 8,4 4,9 - - 13 7 - - S 1024,6 10 60 0,0
11.12.2018 11:00:00 8,1 4,1 - - 8 4 - - SSE 1025,3 10 60 0,0
11.12.2018 10:00:00 6,2 4,2 - - 8 4 - - SSE 1025,7 10 42 0,0
11.12.2018 09:00:00 4,1 3,1 9,2 10,2 9 5 - - S 1025,8 10 0 0,0
11.12.2018 08:00:00 1,7 1,1 - - 8 4 - - SSW 1026,1 10 0 0,0
11.12.2018 07:00:00 2,2 1,6 - - 4 2 - - S 1026,1 25 0 0,0
11.12.2018 06:00:00 2,1 1,5 - - 5 3 - - SSE 1026,4 10 0 0,0
11.12.2018 05:00:00 2,5 2,1 - - 4 2 - - SW 1026,6 10 0 0,0
11.12.2018 04:00:00 0,8 0,2 - - 8 4 - - ESE 1026,6 10 0 0,0
11.12.2018 03:00:00 1,7 1,2 - - 5 3 - - S 1027,0 10 0 0,0
11.12.2018 02:00:00 1,5 0,9 - - 5 3 - - S 1027,3 10 0 0,0
11.12.2018 01:00:00 2,5 1,8 - - 5 3 - - SSW 1027,6 15 0 0,0
11.12.2018 00:00:00 4,4 2,9 - - 8 4 - - WSW 1028,1 10 - 0,0
10.12.2018 23:00:00 4,9 3,3 - - 9 5 - - WSW 1028,2 10 0 0,0
10.12.2018 22:00:00 5,5 3,5 - - 9 5 - - WSW 1028,1 10 0 0,0
10.12.2018 21:00:00 5,9 3,9 - - 9 5 - - WSW 1028,3 10 0 0,0
10.12.2018 20:00:00 6,3 4,1 - - 11 6 - - WSW 1028,2 10 0 0,0
10.12.2018 19:00:00 7,3 4,2 - - 8 4 - - WSW 1028,6 10 0 0,0
10.12.2018 18:00:00 7,2 4,3 - - 8 4 - - W 1028,5 10 0 0,0
10.12.2018 17:00:00 7,4 4,5 - - 8 4 - - W 1028,7 10 0 0,0
10.12.2018 16:00:00 7,8 4,6 - - 11 6 - - W 1028,3 10 0 0,0
10.12.2018 15:00:00 8,4 4,1 - - 13 7 - - W 1028,0 10 0 0,0
10.12.2018 14:00:00 8,7 3,8 - - 13 7 - - WNW 1027,9 10 0 0,0
10.12.2018 13:00:00 8,9 4,3 - - 13 7 - - WNW 1028,0 10 0 0,0
10.12.2018 12:00:00 8,8 4,1 - - 18 10 - - NW 1028,2 10 54 0,0
10.12.2018 11:00:00 7,3 4,7 - - 15 8 - - W 1028,4 10 0 0,0
10.12.2018 10:00:00 6,7 4,4 - - 13 7 - - W 1028,2 10 0 0,0
10.12.2018 09:00:00 7,0 4,4 9,4 10,2 13 7 - - W 1027,5 10 0 0,0
10.12.2018 08:00:00 6,9 4,4 - - 15 8 - - W 1027,0 10 0 0,0
10.12.2018 07:00:00 6,8 4,6 - - 18 10 - - W 1026,6 10 0 0,0
10.12.2018 06:00:00 6,7 4,4 - - 16 9 - - W 1026,5 27 0 0,0
10.12.2018 05:00:00 6,9 4,3 - - 21 11 - - W 1025,9 10 0 0,0
10.12.2018 04:00:00 6,9 4,2 - - 22 12 - - W 1025,2 27 0 0,0
10.12.2018 03:00:00 6,7 4,6 - - 22 12 - - W 1025,0 10 0 0,0
10.12.2018 02:00:00 6,9 4,9 - - 22 12 - - W 1024,5 10 0 0,0
10.12.2018 01:00:00 6,5 4,7 - - 21 11 - - W 1024,2 10 0 0,0
10.12.2018 00:00:00 6,4 4,2 - - 18 10 - - W 1023,7 10 - 0,0
09.12.2018 23:00:00 6,3 4,1 - - 15 8 - - W 1023,0 30 0 0,0
09.12.2018 22:00:00 6,6 4,1 - - 16 9 - - W 1022,3 35 0 0,0
09.12.2018 21:00:00 6,8 4,5 - - 13 7 - - WNW 1021,6 10 0 0,0
09.12.2018 20:00:00 7,3 4,6 - - 13 7 - - WNW 1021,1 10 0 0,0
09.12.2018 19:00:00 7,7 4,6 - - 16 9 - - W 1019,8 45 0 0,0
09.12.2018 18:00:00 8,2 4,0 - - 18 10 - - W 1018,9 10 0 0,0
09.12.2018 17:00:00 8,5 4,0 - - 18 10 - - WNW 1017,6 50 0 0,0
09.12.2018 16:00:00 9,6 4,4 - - 24 13 - - WNW 1016,3 10 0 0,0
09.12.2018 15:00:00 9,3 5,4 - - 18 10 - - WNW 1014,8 45 12 0,0
09.12.2018 14:00:00 9,9 5,1 - - 26 14 - - NW 1013,2 45 42 0,0
09.12.2018 13:00:00 8,9 5,6 - - 18 10 - - NW 1011,9 10 18 0,2
09.12.2018 12:00:00 8,1 6,3 - - 31 17 - - NNW 1010,7 3,9 6 0,4
09.12.2018 11:00:00 10,0 5,7 - - 29 16 50 27 NW 1008,9 45 6 0,0
09.12.2018 10:00:00 9,8 6,2 - - 29 16 50 27 W 1007,2 35 18 0,0
09.12.2018 09:00:00 9,4 6,4 9,7 10,2 34 18 54 29 W 1005,8 10 0 0,0
09.12.2018 08:00:00 9,5 6,2 - - 34 18 52 28 W 1004,2 10 0 0,0
09.12.2018 07:00:00 9,0 6,2 - - 41 22 68 37 W 1002,4 18 0 0,0
09.12.2018 06:00:00 9,6 5,8 - - 41 22 72 39 W 1001,8 10 0 0,0
09.12.2018 05:00:00 8,8 5,9 - - 46 25 76 41 WSW 1001,3 18 0 0,0
09.12.2018 04:00:00 8,4 5,9 - - 46 25 67 36 WSW 1000,8 10 0 0,0
09.12.2018 03:00:00 8,1 5,9 - - 39 21 65 35 WSW 1001,6 10 0 0,2
09.12.2018 02:00:00 8,0 5,3 - - 34 18 63 34 WSW 1001,1 15 0 0,0
09.12.2018 01:00:00 7,9 5,1 - - 41 22 61 33 W 1001,3 10 0 0,0
09.12.2018 00:00:00 8,1 5,5 - - 39 21 55 30 W 1000,6 19 - 0,0
08.12.2018 23:00:00 8,3 5,7 - - 41 22 59 32 W 1000,7 10 0 0,2
08.12.2018 22:00:00 8,5 6,4 - - 28 15 67 36 W 1000,6 10 0 1,6
08.12.2018 21:00:00 9,4 6,1 - - 31 17 54 29 W 1000,1 10 0 0,0
08.12.2018 20:00:00 9,0 6,6 - - 37 20 63 34 W 999,9 15 0 0,0
08.12.2018 19:00:00 9,2 6,7 - - 42 23 65 35 W 999,7 10 0 0,2
08.12.2018 18:00:00 10,2 6,7 - - 37 20 65 35 W 999,7 10 0 0,0
08.12.2018 17:00:00 10,5 7,8 - - 37 20 68 37 W 1000,2 10 0 0,8
08.12.2018 16:00:00 11,1 8,2 - - 31 17 67 36 W 1000,0 10 0 0,0
08.12.2018 15:00:00 11,3 9,6 - - 35 19 55 30 W 1000,5 10 0 1,0
08.12.2018 14:00:00 11,3 9,4 - - 41 22 61 33 WSW 1001,5 10 0 0,0
08.12.2018 13:00:00 10,8 7,9 - - 29 16 52 28 SW 1003,4 10 0 0,0
08.12.2018 12:00:00 10,0 6,8 - - 39 21 54 29 SW 1004,9 30 0 0,0
08.12.2018 11:00:00 9,7 5,8 - - 35 19 57 31 WSW 1006,4 10 24 0,0
08.12.2018 10:00:00 9,3 5,4 - - 37 20 50 27 WSW 1006,4 10 30 0,0
08.12.2018 09:00:00 8,8 5,4 9,7 10,2 26 14 50 27 WSW 1007,0 16 0 0,0
08.12.2018 08:00:00 8,6 4,8 - - 37 20 59 32 W 1007,0 23 0 0,0
08.12.2018 07:00:00 8,8 4,7 - - 37 20 57 31 W 1006,8 29 0 0,0
08.12.2018 06:00:00 8,9 4,9 - - 37 20 68 37 W 1006,3 10 0 0,0
08.12.2018 05:00:00 8,9 5,0 - - 34 18 54 29 W 1005,7 10 0 0,0
08.12.2018 04:00:00 8,0 5,4 - - 34 18 50 27 WSW 1005,6 10 0 0,2
08.12.2018 03:00:00 8,0 5,1 - - 35 19 57 31 WSW 1005,6 10 0 0,0
08.12.2018 02:00:00 7,7 4,7 - - 35 19 54 29 WSW 1005,5 10 0 0,0
08.12.2018 01:00:00 7,5 4,5 - - 34 18 54 29 WSW 1005,8 10 0 0,0
08.12.2018 00:00:00 7,0 4,3 - - 37 20 55 30 WSW 1006,1 19 - 0,0
07.12.2018 23:00:00 6,9 4,1 - - 35 19 57 31 WSW 1006,0 10 0 0,0
07.12.2018 22:00:00 6,5 3,4 - - 37 20 54 29 WSW 1005,9 10 0 0,0
07.12.2018 21:00:00 6,2 3,2 - - 35 19 46 25 WSW 1005,8 10 0 0,0
07.12.2018 20:00:00 6,3 3,1 - - 34 18 52 28 WSW 1006,2 10 0 0,0
07.12.2018 19:00:00 6,1 3,2 - - 29 16 48 26 WSW 1005,8 30 0 0,0
07.12.2018 18:00:00 6,6 2,6 - - 37 20 54 29 WSW 1005,1 10 0 0,0
07.12.2018 17:00:00 7,2 2,0 - - 34 18 52 28 W 1004,2 10 0 0,0
07.12.2018 16:00:00 7,7 3,0 - - 35 19 55 30 W 1003,4 10 0 0,0
07.12.2018 15:00:00 8,0 3,2 - - 31 17 52 28 W 1002,7 10 18 0,0
07.12.2018 14:00:00 9,0 3,5 - - 37 20 59 32 W 1002,0 29 30 0,0
07.12.2018 13:00:00 9,1 4,6 - - 28 15 48 26 W 1001,5 10 18 0,0
07.12.2018 12:00:00 8,6 5,3 - - 34 18 61 33 W 1001,0 10 0 0,2
07.12.2018 11:00:00 9,3 7,9 - - 24 13 - - W 1000,3 10 0 0,4
07.12.2018 10:00:00 9,1 7,3 - - 28 15 65 35 W 1000,5 10 0 3,8
07.12.2018 09:00:00 11,7 10,8 9,9 10,2 34 18 55 30 SW 999,9 8 0 2,6
07.12.2018 08:00:00 11,8 10,7 - - 39 21 61 33 SW 1001,4 8 0 3,2
07.12.2018 07:00:00 11,9 11,0 - - 39 21 63 34 SW 1002,5 8 0 2,0
07.12.2018 06:00:00 11,9 11,0 - - 41 22 61 33 SW 1003,8 7 0 0,0
07.12.2018 05:00:00 12,0 11,1 - - 41 22 59 32 SW 1005,3 10 0 0,2
07.12.2018 04:00:00 12,2 11,5 - - 34 18 46 25 SW 1007,1 6 0 0,4
07.12.2018 03:00:00 12,1 11,6 - - 29 16 - - SSW 1008,3 4,0 0 0,2
07.12.2018 02:00:00 12,2 11,7 - - 34 18 50 27 SW 1009,4 5 0 0,2
07.12.2018 01:00:00 12,3 11,9 - - 31 17 - - SW 1010,2 8 0 0,0
07.12.2018 00:00:00 12,2 11,7 - - 24 13 - - SSW 1011,2 10 - 0,0
06.12.2018 23:00:00 12,2 11,7 - - 28 15 - - SW 1011,9 10 0 0,0
06.12.2018 22:00:00 12,2 11,5 - - 29 16 - - SW 1012,5 10 0 0,0
06.12.2018 21:00:00 12,2 11,5 - - 26 14 - - SW 1013,1 10 0 0,0
06.12.2018 20:00:00 12,2 11,5 - - 28 15 - - SW 1013,7 10 0 0,0
06.12.2018 19:00:00 12,1 11,4 - - 28 15 - - SW 1014,0 10 0 0,2
06.12.2018 18:00:00 11,9 11,1 - - 24 13 - - SW 1014,0 10 0 0,2
06.12.2018 17:00:00 11,8 10,9 - - 24 13 - - SW 1014,2 8 0 0,0
06.12.2018 16:00:00 11,8 10,9 - - 28 15 - - SW 1014,2 10 0 0,0
06.12.2018 15:00:00 11,8 10,4 - - 26 14 46 25 SW 1014,2 10 0 0,0
06.12.2018 14:00:00 11,8 9,7 - - 29 16 - - SW 1014,4 10 0 0,2
06.12.2018 13:00:00 11,9 10,0 - - 24 13 - - SW 1015,1 10 0 0,0

tt = temperature
td = dewpoint
tt -20cm = temperature -20cm
tt -100cm = temperature -100cm
ff = wind speed
fx = gusts
dd = wind direction
ppp = reduced air pressure
vv = visibility
sd = sunshine duration
rr = precipitation

Next stations